Flag for Italy Weather past 2 weeks in Modena, Italy

Now
37 °F

Partly sunny.


Feels Like: 33 °F
Forecast: 25 / 44 °F
Wind: 6 mph from Southwest

Location: Bologna / Borgo Panigale

Current Time: Feb 1, 2015 at 9:11:41 AM

Latest Report: Feb 1, 2015 at 8:20 AM


Visibility: 5 mi

Pressure: 29.24 "Hg

Humidity: 93%

Dew point: 36 °F

Location of ModenaLocation

Historic Weather in Modena — Graph

°F

Modena temperature yesterday

Maximum temperature yesterday: 45 °F (at 1:20 PM)
Minimum temperature yesterday: 27 °F (at 5:20 AM)
Average temperature yesterday: 37 °F

Past Weeks' High & Low Weather Summary

 TemperatureHumidityPressure
High64 °F (Jan 17, 1:20 PM)100% (Jan 20, 7:50 AM)30.27 "Hg (Jan 20, 7:50 AM)
Low27 °F (Jan 28, 7:20 AM)28% (Jan 17, 2:20 PM)28.82 "Hg (Jan 30, 11:50 AM)
Average41 °F78%29.78 "Hg
* Reported Jan 17 7:20 AM — Feb 1 7:50 AM, Modena, Weather by CustomWeather, © 2014

Note: Actual official high and low records may vary slightly from our data, if they occured in-between our weather recording intervals... More about our weather records

Advertising

Modena weather history for previous 24 hours

 ConditionsComfort  
Time TempWeatherWind HumidityBarometerVisibility
7:50 AM
Feb 1
37 °FPartly sunny.6 mph93%29.24 "HgN/A
7:20 AM36 °FPartly cloudy.3 mph93%29.21 "HgN/A
6:50 AM37 °FPassing clouds.2 mph93%29.21 "HgN/A
6:20 AM37 °FPartly cloudy.6 mph93%29.21 "Hg4 mi
5:50 AM37 °FPartly cloudy.8 mph93%29.18 "Hg4 mi
5:20 AM37 °FPartly cloudy.2 mph93%29.18 "Hg2 mi
4:50 AM37 °FPartly cloudy.5 mph100%29.18 "Hg2 mi
4:20 AM37 °FLight rain. Partly cloudy.5 mph100%29.18 "Hg2 mi
3:50 AM36 °FRain. Partly cloudy.5 mph100%29.18 "Hg1 mi
3:20 AM37 °FRain. Partly cloudy.7 mph93%29.18 "Hg1 mi
2:50 AM37 °FRain. Partly cloudy.3 mph100%29.18 "Hg1 mi
2:20 AM37 °FRain. Passing clouds.8 mph100%29.18 "Hg1 mi
1:50 AM37 °FRain. Passing clouds.8 mph100%29.18 "Hg1 mi
1:20 AM39 °FLight rain. Passing clouds.9 mph93%29.18 "Hg1 mi
12:50 AM37 °FLight rain. Passing clouds.8 mph93%29.18 "Hg4 mi
12:20 AM37 °FLight rain. Passing clouds.8 mph93%29.18 "Hg5 mi
11:50 PM
Jan 31
39 °FLight rain. Passing clouds.8 mph87%29.18 "Hg5 mi
11:20 PM39 °FPassing clouds.2 mph81%29.18 "Hg5 mi
10:50 PM39 °FPassing clouds.5 mph81%29.18 "Hg5 mi
10:20 PM39 °FPassing clouds.5 mph81%29.15 "Hg5 mi
9:20 PM37 °FPassing clouds.7 mph87%29.18 "Hg4 mi
8:50 PM36 °FPassing clouds.2 mph93%29.15 "Hg4 mi
8:20 PM37 °FPassing clouds.3 mph87%29.18 "Hg5 mi
7:50 PM39 °FPassing clouds.1 mph87%29.18 "Hg5 mi
7:20 PM37 °FPassing clouds.1 mph87%29.15 "Hg5 mi
6:50 PM41 °FPassing clouds.3 mph81%29.15 "HgN/A
6:20 PM41 °FPassing clouds.5 mph81%29.15 "HgN/A
5:50 PM43 °FPassing clouds.6 mph76%29.15 "HgN/A
5:20 PM43 °FScattered clouds.5 mph76%29.12 "HgN/A
4:50 PM45 °FScattered clouds.7 mph71%29.12 "HgN/A
4:20 PM45 °FScattered clouds.6 mph71%29.12 "HgN/A
3:50 PM45 °FScattered clouds.6 mph71%29.12 "HgN/A
3:20 PM45 °FPassing clouds.6 mph66%29.12 "HgN/A
2:50 PM45 °FPassing clouds.7 mph66%29.12 "HgN/A
2:20 PM45 °FPassing clouds.3 mph61%29.12 "HgN/A
1:50 PM45 °FPassing clouds.6 mph61%29.12 "HgN/A
1:20 PM45 °FPassing clouds.6 mph66%29.12 "HgN/A
12:50 PM43 °FPassing clouds.6 mph71%29.12 "HgN/A
12:20 PM43 °FPassing clouds.6 mph66%29.12 "HgN/A
11:50 AM43 °FPassing clouds.6 mph61%29.12 "HgN/A
11:20 AM41 °FSunny.6 mph66%29.12 "Hg10 mi
10:50 AM41 °FPassing clouds.3 mph57%29.12 "HgN/A
10:20 AM39 °FSunny.2 mph56%29.12 "Hg10 mi
9:50 AM37 °FSunny.1 mph60%29.12 "Hg10 mi
9:20 AM34 °FSunny.3 mph65%29.12 "Hg10 mi
Weather by CustomWeather, © 2014

See weather overviewHow to use our weather pages